AUA673 EIDW-LOWW

Flight info

Callsign AUA673
Flight time N/A
Altitude 41000
Route ENDEQ3J ENDEQ Q36 ALAVA Z195 MALUD UL975 WAL M16 DOLAS L603 LAMSO DCT NOMKA DCT TALEG L620 PIKIB DCT OMELO DCT EVIKU DCT BITSI DCT MIKOV MIKOV8W
Aircraft A343/H-SDE2E3FGHIJ4J5M1RWXY/LB1D1

Departure

Time N/A
Airport Dublin Airport (EIDW)

Arrival

Time 2026-05-06 19:26
Airport Vienna International Airport (LOWW)
Time Latitude Longitude Altitude Speed Heading
2026-05-06 19:03 48.30298 16.79875 7984 ft 263 kts 176°
2026-05-06 19:03 48.28441 16.79992 7977 ft 261 kts 187°
2026-05-06 19:03 48.26702 16.79395 7987 ft 257 kts 204°
2026-05-06 19:03 48.25183 16.78034 7989 ft 255 kts 220°
2026-05-06 19:04 48.23899 16.76195 7985 ft 255 kts 221°
2026-05-06 19:04 48.22337 16.74969 7989 ft 257 kts 195°
2026-05-06 19:04 48.20539 16.75010 7991 ft 267 kts 169°
2026-05-06 19:04 48.18891 16.76347 7991 ft 277 kts 143°
2026-05-06 19:05 48.17768 16.78752 7992 ft 290 kts 117°
2026-05-06 19:05 48.17365 16.81750 7995 ft 298 kts 98°
2026-05-06 19:05 48.17216 16.84844 7986 ft 297 kts 104°
2026-05-06 19:05 48.16488 16.87647 7995 ft 285 kts 128°
2026-05-06 19:06 48.15320 16.90021 7990 ft 279 kts 134°
2026-05-06 19:06 48.14157 16.92186 7996 ft 255 kts 135°
2026-05-06 19:06 48.13063 16.94226 8001 ft 250 kts 135°
2026-05-06 19:06 48.11883 16.96085 7994 ft 242 kts 152°
2026-05-06 19:07 48.10375 16.96985 8002 ft 231 kts 173°
2026-05-06 19:07 48.08798 16.97311 7996 ft 228 kts 183°
2026-05-06 19:07 48.07251 16.96944 8013 ft 224 kts 203°
2026-05-06 19:07 48.05975 16.95650 7961 ft 224 kts 227°
2026-05-06 19:08 48.05251 16.93598 7680 ft 229 kts 253°
2026-05-06 19:08 48.05307 16.91185 7347 ft 242 kts 282°
2026-05-06 19:08 48.06277 16.89074 7073 ft 253 kts 309°
2026-05-06 19:08 48.07580 16.87293 6991 ft 250 kts 311°
2026-05-06 19:09 48.08874 16.85550 6995 ft 250 kts 310°
2026-05-06 19:09 48.10101 16.83856 6993 ft 250 kts 310°
2026-05-06 19:09 48.11419 16.82004 6992 ft 250 kts 310°
2026-05-06 19:09 48.12679 16.80215 6991 ft 249 kts 309°
2026-05-06 19:10 48.13932 16.78424 6991 ft 249 kts 309°
2026-05-06 19:10 48.15185 16.76628 6995 ft 249 kts 309°
2026-05-06 19:10 48.16436 16.74830 6909 ft 250 kts 309°
2026-05-06 19:10 48.17693 16.73020 6617 ft 251 kts 309°
2026-05-06 19:11 48.18953 16.71203 6304 ft 252 kts 309°
2026-05-06 19:11 48.20220 16.69377 6046 ft 250 kts 309°
2026-05-06 19:11 48.21487 16.67635 5993 ft 248 kts 313°
2026-05-06 19:11 48.22969 16.66241 5992 ft 257 kts 331°
2026-05-06 19:12 48.24672 16.65379 5990 ft 260 kts 338°
2026-05-06 19:12 48.26399 16.64661 5987 ft 253 kts 339°
2026-05-06 19:12 48.28085 16.63971 5991 ft 250 kts 338°
2026-05-06 19:12 48.29779 16.63267 5988 ft 250 kts 338°
2026-05-06 19:13 48.31433 16.62575 5991 ft 250 kts 338°
2026-05-06 19:13 48.33111 16.61869 5984 ft 250 kts 339°
2026-05-06 19:13 48.34813 16.61153 5800 ft 252 kts 339°
2026-05-06 19:13 48.36492 16.60444 5457 ft 255 kts 339°
2026-05-06 19:14 48.38238 16.59712 5113 ft 258 kts 339°
2026-05-06 19:14 48.39946 16.58993 4991 ft 250 kts 339°
2026-05-06 19:14 48.41565 16.58313 4988 ft 239 kts 340°
2026-05-06 19:14 48.43130 16.57653 4971 ft 228 kts 340°
2026-05-06 19:15 48.44664 16.57003 4973 ft 226 kts 340°
2026-05-06 19:15 48.46158 16.56367 4968 ft 226 kts 339°
2026-05-06 19:15 48.47668 16.55730 4965 ft 222 kts 340°
2026-05-06 19:15 48.49044 16.54901 4973 ft 206 kts 327°
2026-05-06 19:16 48.50282 16.53913 4970 ft 199 kts 325°
2026-05-06 19:16 48.51308 16.52614 4965 ft 189 kts 296°
2026-05-06 19:16 48.51618 16.50789 4974 ft 178 kts 264°
2026-05-06 19:16 48.51289 16.49036 4970 ft 176 kts 233°
2026-05-06 19:17 48.50340 16.47892 4971 ft 177 kts 210°
2026-05-06 19:17 48.49210 16.47099 4971 ft 180 kts 206°
2026-05-06 19:17 48.48054 16.46365 4964 ft 181 kts 205°
2026-05-06 19:17 48.46880 16.45625 4964 ft 180 kts 205°
2026-05-06 19:18 48.45722 16.44905 4967 ft 180 kts 204°
2026-05-06 19:18 48.44459 16.44584 4974 ft 183 kts 185°
2026-05-06 19:18 48.43182 16.44705 4971 ft 185 kts 176°
2026-05-06 19:18 48.41919 16.45093 4969 ft 186 kts 171°
2026-05-06 19:19 48.40669 16.45604 4968 ft 186 kts 169°
2026-05-06 19:19 48.39435 16.46138 4969 ft 187 kts 169°
2026-05-06 19:19 48.38175 16.46678 4972 ft 188 kts 170°
2026-05-06 19:19 48.36912 16.47214 4972 ft 188 kts 169°
2026-05-06 19:20 48.35629 16.47756 4977 ft 189 kts 169°
2026-05-06 19:20 48.34362 16.48291 4978 ft 190 kts 169°
2026-05-06 19:20 48.33090 16.48829 4874 ft 189 kts 169°
2026-05-06 19:20 48.31822 16.49371 4660 ft 190 kts 170°
2026-05-06 19:21 48.30537 16.49921 4388 ft 194 kts 170°
2026-05-06 19:21 48.29228 16.50479 4093 ft 197 kts 170°
2026-05-06 19:21 48.27915 16.51041 3792 ft 193 kts 170°
2026-05-06 19:21 48.26648 16.51584 3534 ft 187 kts 171°
2026-05-06 19:22 48.25421 16.52106 3342 ft 177 kts 171°
2026-05-06 19:22 48.24292 16.52590 3090 ft 161 kts 171°
2026-05-06 19:22 48.23219 16.53042 2876 ft 161 kts 171°
2026-05-06 19:22 48.22143 16.53499 2664 ft 161 kts 170°
2026-05-06 19:23 48.21114 16.53942 2458 ft 145 kts 170°
2026-05-06 19:23 48.20176 16.54341 2274 ft 137 kts 171°
2026-05-06 19:23 48.19265 16.54725 2093 ft 136 kts 170°
2026-05-06 19:23 48.18356 16.55112 1891 ft 133 kts 170°
2026-05-06 19:24 48.17856 16.55325 1809 ft 129 kts 170°
2026-05-06 19:24 48.16900 16.55730 1624 ft 128 kts 169°
2026-05-06 19:24 48.16045 16.56105 1455 ft 130 kts 168°
2026-05-06 19:24 48.15180 16.56477 1215 ft 126 kts 169°
2026-05-06 19:25 48.14334 16.56809 1114 ft 127 kts 166°
2026-05-06 19:25 48.13470 16.57192 947 ft 129 kts 163°
2026-05-06 19:25 48.12591 16.57562 773 ft 131 kts 164°
2026-05-06 19:25 48.11707 16.57928 642 ft 133 kts 165°
2026-05-06 19:26 48.10969 16.58242 626 ft 52 kts 165°
2026-05-06 19:26 48.10777 16.58284 620 ft 23 kts 186°
2026-05-06 19:26 48.10640 16.58256 621 ft 14 kts 193°
2026-05-06 19:26 48.10567 16.58218 629 ft 10 kts 207°
2026-05-06 19:27 48.10497 16.58175 629 ft 12 kts 214°
2026-05-06 19:27 48.10477 16.58066 619 ft 11 kts 294°
2026-05-06 19:27 48.10550 16.58002 627 ft 14 kts 340°
2026-05-06 19:27 48.10646 16.57964 627 ft 14 kts 345°
2026-05-06 19:28 48.10751 16.57919 622 ft 17 kts 344°
2026-05-06 19:28 48.10858 16.57874 626 ft 17 kts 344°
2026-05-06 19:28 48.10985 16.57820 621 ft 21 kts 344°
2026-05-06 19:28 48.11118 16.57760 627 ft 19 kts 334°
2026-05-06 19:29 48.11194 16.57603 628 ft 18 kts 296°
2026-05-06 19:29 48.11248 16.57436 625 ft 18 kts 296°
2026-05-06 19:29 48.11309 16.57251 622 ft 21 kts 295°
2026-05-06 19:29 48.11373 16.57056 630 ft 22 kts 296°
2026-05-06 19:30 48.11443 16.56891 626 ft 12 kts 333°
2026-05-06 19:30 48.11527 16.56917 625 ft 14 kts 29°
2026-05-06 19:30 48.11543 16.57024 627 ft 9 kts 108°
2026-05-06 19:30 48.11552 16.57090 629 ft 4 kts 46°
2026-05-06 19:31 48.11577 16.57110 629 ft 4 kts 27°
2026-05-06 19:31 48.11595 16.57124 626 ft 2 kts 26°
2026-05-06 19:31 48.11600 16.57128 625 ft 0 kts 26°